QZS-2 (MICHIBIKI-2)

Last updated on Tue Mar 10 2026 00:02:54 GMT+0000 (Coordinated Universal Time)

1 42738U 17028A 26067.79504528 -.00000148 00000+0 00000+0 0 9995 2 42738 39.5837 244.6153 0745103 270.3684 79.1394 1.00260846 6619
UTC large
Height (km)
Speed (km/s)
/
Latitude / Longitude
Inclination (degrees)
Orbital Period (minutes)
Azimuth
Elevation
Range (km)
Doppler Factor

Next 0 passes for location: London (51.5072 / 0.1276)

Sorry there are no passes over London.